Regional Weather Roundup
Issued by NWS

Home | Current Version | Previous Version | Graphics & Text | Print | Product List | Glossary On
Versions: 1 2 3 4 5 6 7 8 9 10 11 12 13 14 15 16 17 18 19 20 21 22 23 24 25 26 27
000
ASUS45 KBOU 191107
RWRCO

WEATHER ROUNDUP FOR COLORADO
NATIONAL WEATHER SERVICE DENVER/BOULDER CO
500 AM MDT THU OCT 19 2017

NOTE: "FAIR" INDICATES FEW OR NO CLOUDS BELOW 12000 FEET WITH NO
SIGNIFICANT WEATHER AND/OR OBSTRUCTIONS TO VISIBILITY.

COZ001>005-013-030-031-191200-
...NORTHWEST COLORADO...

CITY           SKY/WX    TMP DP  RH WIND       PRES   REMARKS
CRAIG          FAIR      23  17  78 CALM      30.17F
HAYDEN         FAIR      37  15  40 E13       30.18F
MEEKER         FAIR      33  18  53 CALM      30.16F
RABBIT EARS PA FAIR      43   7  22 SE6       30.35S
STEAMBOAT SPGS FAIR      28  16  62 CALM      30.20S
WALDEN         NOT AVBL
$$

COZ006>008-011-191200-
...WEST CENTRAL VALLEYS...

CITY           SKY/WX    TMP DP  RH WIND       PRES   REMARKS
GRAND JUNCTION FAIR      44  18  35 CALM      30.08F
MONTROSE       FAIR      41  19  41 S8        30.16F
EAGLE          FAIR      29  18  63 CALM      30.27S
RIFLE          FAIR      36  20  52 CALM      30.15F
DELTA          FAIR      41  14  33 CALM      30.14S
NUCLA          FAIR      41  16  36 SE8       30.18F
$$

COZ017>023-064>068-191200-
...SOUTHWEST COLORADO...

CITY           SKY/WX    TMP DP  RH WIND       PRES   REMARKS
DURANGO        FAIR      33  22  63 NE3       30.19F
CORTEZ         FAIR      37  27  67 CALM      30.14F
PAGOSA SPRINGS FAIR      35  16  46 CALM      30.26S
TELLURIDE      NOT AVBL
WOLF CREEK PAS FAIR      37  10  32 SW5       30.51S
$$

COZ009-010-012-014-032>034-037-058>063-191200-
...CENTRAL COLORADO...

CITY           SKY/WX    TMP DP  RH WIND       PRES   REMARKS
ASPEN          FAIR      36  18  48 S8        30.23F
BUENA VISTA    FAIR      32  15  50 NW3       30.29S
COPPER MTN     FAIR      45   7  21 SW6       30.45F
BERTHOUD PASS  FAIR      34  27  75 W21       30.47S WCI  22
COTTONWOOD PAS FAIR      52   0  11 CALM      30.35F
GUNNISON       FAIR      23  14  68 E3        30.32S
KREMMLING      FAIR      23  18  80 CALM      30.30S
LEADVILLE      FAIR      29   8  41 S5        30.34F WCI  24
MONARCH PASS   FAIR      37   5  25 SW13      30.56S
SALIDA         NOT AVBL
SUNLIGHT       FAIR      39   3  22 SW10G17   30.40S
WILKERSON PASS FAIR      37   3  23 SW12      30.44S
$$

COZ069>075-191200-
...SAN LUIS VALLEY/SANGRE DE CRISTO MOUNTAINS...

CITY           SKY/WX    TMP DP  RH WIND       PRES   REMARKS
ALAMOSA        FAIR      24  17  74 CALM      30.27R
DEL NORTE      FAIR      38  15  39 W13       30.28S
LA VETA PASS   FAIR      43  14  31 SW16      30.47F
SAGUACHE       FAIR      34  14  44 N14       30.28S WCI  24
$$

COZ035-036-038>040-191200-
...NORTHERN COLORADO FRONT RANGE...

CITY           SKY/WX    TMP DP  RH WIND       PRES   REMARKS
DENVER INTL AP FAIR      47  21  35 W10       30.08S
DMNS CITY PARK   N/A     41  25  52 E1G10     30.08S
AURORA         PTCLDY    47  25  41 S8        30.09F
FRONT RANGE AP FAIR      54  27  35 S16G26    30.09S
ERIE MUNI ARPT FAIR      36  27  68 S3        30.14R
BOULDER MUN AP FAIR      39  27  60 S3        30.07S
CENTENNIAL     FAIR      47  25  42 S9        30.10F
BROOMFIELD     FAIR      50  21  32 SE3       30.10R
FORT COLLINS   FAIR      39  27  62 CALM      30.08S
LONGMONT       FAIR      36  27  70 CALM      30.10S
$$

COZ041-046-047-076>085-087-088-191200-
...PIKES PEAK/PALMER DIVIDE AND SOUTHERN FOOTHILLS...

CITY           SKY/WX    TMP DP  RH WIND       PRES   REMARKS
COLO. SPRINGS  FAIR      47  25  42 E6        30.15F
A. F. ACADEMY  CLEAR     35  22  59 N12       30.15F WCI  27
SCHRIEVER AFB  FAIR      47  22  37 MISG      30.15F
CHEYENNE MTN   NOT AVBL
ELLICOTT       FAIR     N/A N/A N/A CALM      30.14F
FALCON         FAIR      45  22  39 SW6       30.18S
FORT CARSON    FAIR      42  24  49 NW7       30.13S
LIMON          FAIR      28  26  92 N6        30.13S WCI  22
MONUMENT HILL  FAIR      43  23  45 S12       30.18S
CANON CITY     CLEAR     54  19  26 W14G21    30.11F
WALSENBURG     FAIR      43  23  45 SW7       30.16S
TRINIDAD       FAIR      44  25  47 W10       30.14S
$$

COZ042>045-048>051-090-091-191200-
...NORTHEAST COLORADO...

CITY           SKY/WX    TMP DP  RH WIND       PRES   REMARKS
GREELEY ARPT   FAIR      32  27  81 NW7       30.08S WCI  26
AKRON          FAIR      47  29  49 SW10      30.07F
BURLINGTON     FAIR      39  32  76 S6        30.09S
WRAY           FAIR      36  32  87 W5        30.08S
YUMA           FAIR      34  30  86 SW5       30.07F WCI  30
STERLING       FAIR      34  30  86 CALM      30.06F
HOLYOKE        FAIR      36  32  87 W6        30.08S
FORT MORGAN    FAIR      42  24  48 E5        30.07F
$$

COZ086-089-092>099-191200-
...SOUTHEAST COLORADO...

CITY           SKY/WX    TMP DP  RH WIND       PRES   REMARKS
PUEBLO         FLURRIES  38  27  64 CALM      30.10F
LA JUNTA       FAIR      40  32  73 SW5       30.09S
LAMAR          FLURRIES  33  28  81 S7        30.06S WCI  27
SPRINGFIELD      N/A     42  37  82 W5        30.07S
$$




USA.gov is the U.S. government's official web portal to all federal, state and local government web resources and services.